Time,TemperatureF,DewpointF,PressureIn,WindDirection,WindDirectionDegrees,WindSpeedMPH,WindSpeedGustMPH,Humidity,HourlyPrecipIn,Conditions,Clouds,dailyrainin,SoftwareType,DateUTC
2013-08-05 00:03:00,59.0,53.2,29.94,East,90,0.0,-999.0,81,-99.99,,,0.00,Acu-Link.com,2013-08-05 07:03:00,
2013-08-05 00:18:00,59.0,53.5,29.94,NNE,22,0.0,-999.0,82,-99.99,,,0.00,Acu-Link.com,2013-08-05 07:18:00,
2013-08-05 00:33:00,59.0,53.2,29.94,ESE,112,0.0,-999.0,81,-99.99,,,0.00,Acu-Link.com,2013-08-05 07:33:00,
2013-08-05 00:48:00,57.2,51.8,29.94,SSE,157,0.0,-999.0,82,-99.99,,,0.00,Acu-Link.com,2013-08-05 07:48:00,
2013-08-05 01:04:00,55.4,50.3,29.94,SSE,157,0.0,-999.0,83,-99.99,,,0.00,Acu-Link.com,2013-08-05 08:04:00,
2013-08-05 01:19:00,55.4,50.6,29.94,SSW,202,0.0,-999.0,84,-99.99,,,0.00,Acu-Link.com,2013-08-05 08:19:00,
2013-08-05 01:34:00,55.4,51.0,29.94,East,90,0.0,-999.0,85,-99.99,,,0.00,Acu-Link.com,2013-08-05 08:34:00,
2013-08-05 02:04:00,55.4,51.3,29.93,ESE,112,0.0,-999.0,86,-99.99,,,0.00,Acu-Link.com,2013-08-05 09:04:00,
2013-08-05 02:19:00,53.6,49.8,29.93,ESE,112,0.0,-999.0,87,-99.99,,,0.00,Acu-Link.com,2013-08-05 09:19:00,
2013-08-05 02:35:00,53.6,49.8,29.93,ESE,112,0.0,-999.0,87,-99.99,,,0.00,Acu-Link.com,2013-08-05 09:35:00,
2013-08-05 02:50:00,53.6,49.8,29.93,ESE,112,0.0,-999.0,87,-99.99,,,0.00,Acu-Link.com,2013-08-05 09:50:00,
2013-08-05 03:05:00,53.6,50.1,29.93,ESE,112,0.0,-999.0,88,-99.99,,,0.00,Acu-Link.com,2013-08-05 10:05:00,
2013-08-05 03:20:00,53.6,50.4,29.93,ESE,112,0.0,-999.0,89,-99.99,,,0.00,Acu-Link.com,2013-08-05 10:20:00,
2013-08-05 03:35:00,51.8,49.0,29.93,ESE,112,0.0,-999.0,90,-99.99,,,0.00,Acu-Link.com,2013-08-05 10:35:00,
2013-08-05 03:50:00,51.8,50.4,29.93,ESE,112,0.0,-999.0,95,-99.99,,,0.00,Acu-Link.com,2013-08-05 10:50:00,
2013-08-05 04:05:00,51.8,51.3,29.93,ESE,112,0.0,-999.0,98,-99.99,,,0.00,Acu-Link.com,2013-08-05 11:05:00,
2013-08-05 04:51:00,51.8,51.3,29.93,East,90,0.0,-999.0,98,-99.99,,,0.00,Acu-Link.com,2013-08-05 11:51:00,
2013-08-05 05:06:00,51.8,51.3,29.93,ESE,112,0.0,-999.0,98,-99.99,,,0.00,Acu-Link.com,2013-08-05 12:06:00,
2013-08-05 05:21:00,51.8,51.3,29.93,East,90,0.0,-999.0,98,-99.99,,,0.00,Acu-Link.com,2013-08-05 12:21:00,
2013-08-05 05:52:00,50.0,49.5,29.94,ESE,112,0.0,-999.0,98,-99.99,,,0.00,Acu-Link.com,2013-08-05 12:52:00,
2013-08-05 06:23:00,50.0,49.5,29.95,ESE,112,0.0,-999.0,98,-99.99,,,0.00,Acu-Link.com,2013-08-05 13:23:00,
2013-08-05 06:38:00,50.0,49.5,29.95,ESE,112,0.0,-999.0,98,-99.99,,,0.00,Acu-Link.com,2013-08-05 13:38:00,
2013-08-05 07:08:00,51.8,51.3,29.96,South,180,0.0,-999.0,98,-99.99,,,0.00,Acu-Link.com,2013-08-05 14:08:00,
2013-08-05 07:23:00,51.8,51.3,29.95,SSE,157,0.0,-999.0,98,-99.99,,,0.00,Acu-Link.com,2013-08-05 14:23:00,
2013-08-05 07:38:00,53.6,53.0,29.95,NNW,337,0.0,-999.0,98,-99.99,,,0.00,Acu-Link.com,2013-08-05 14:38:00,
2013-08-05 07:53:00,53.6,53.0,29.95,SSW,202,0.0,-999.0,98,-99.99,,,0.00,Acu-Link.com,2013-08-05 14:53:00,
2013-08-05 08:24:00,55.4,54.0,29.95,West,270,2.0,-999.0,95,-99.99,,,0.00,Acu-Link.com,2013-08-05 15:24:00,
2013-08-05 08:39:00,57.2,53.7,29.95,SW,225,2.0,-999.0,88,-99.99,,,0.00,Acu-Link.com,2013-08-05 15:39:00,
2013-08-05 08:54:00,59.0,54.8,29.96,East,90,0.0,-999.0,86,-99.99,,,0.00,Acu-Link.com,2013-08-05 15:54:00,
2013-08-05 09:09:00,60.8,54.6,29.96,South,180,0.0,-999.0,80,-99.99,,,0.00,Acu-Link.com,2013-08-05 16:09:00,
2013-08-05 09:40:00,64.4,54.4,29.96,SSW,202,2.7,-999.0,70,-99.99,,,0.00,Acu-Link.com,2013-08-05 16:40:00,
2013-08-05 09:55:00,68.0,54.9,29.95,WNW,292,0.0,-999.0,63,-99.99,,,0.00,Acu-Link.com,2013-08-05 16:55:00,
2013-08-05 10:10:00,68.0,53.1,29.95,WSW,247,2.7,-999.0,59,-99.99,,,0.00,Acu-Link.com,2013-08-05 17:10:00,
2013-08-05 10:25:00,69.8,54.8,29.95,ESE,112,0.0,-999.0,59,-99.99,,,0.00,Acu-Link.com,2013-08-05 17:25:00,
2013-08-05 10:40:00,71.6,54.1,29.95,West,270,3.1,-999.0,54,-99.99,,,0.00,Acu-Link.com,2013-08-05 17:40:00,
2013-08-05 10:55:00,73.4,53.6,29.95,NNW,337,3.1,-999.0,50,-99.99,,,0.00,Acu-Link.com,2013-08-05 17:55:00,
2013-08-05 11:11:00,75.2,54.1,29.94,WNW,292,3.1,-999.0,48,-99.99,,,0.00,Acu-Link.com,2013-08-05 18:11:00,
2013-08-05 11:26:00,77.0,54.0,29.95,WSW,247,2.7,-999.0,45,-99.99,,,0.00,Acu-Link.com,2013-08-05 18:26:00,
2013-08-05 11:41:00,77.0,54.0,29.94,NE,45,0.0,-999.0,45,-99.99,,,0.00,Acu-Link.com,2013-08-05 18:41:00,
2013-08-05 11:57:00,77.0,52.8,29.94,ESE,112,1.6,-999.0,43,-99.99,,,0.00,Acu-Link.com,2013-08-05 18:57:00,
2013-08-05 12:12:00,80.6,52.6,29.93,NNE,22,1.6,-999.0,38,-99.99,,,0.00,Acu-Link.com,2013-08-05 19:12:00,
2013-08-05 12:27:00,80.6,51.2,29.93,SSE,157,1.6,-999.0,36,-99.99,,,0.00,Acu-Link.com,2013-08-05 19:27:00,
2013-08-05 12:42:00,82.4,49.6,29.92,WNW,292,2.0,-999.0,32,-99.99,,,0.00,Acu-Link.com,2013-08-05 19:42:00,
2013-08-05 12:57:00,80.6,48.8,29.92,SW,225,2.0,-999.0,33,-99.99,,,0.00,Acu-Link.com,2013-08-05 19:57:00,
2013-08-05 13:12:00,82.4,46.9,29.92,South,180,2.0,-999.0,29,-99.99,,,0.00,Acu-Link.com,2013-08-05 20:12:00,
2013-08-05 13:43:00,84.2,48.5,29.91,SE,135,1.6,-999.0,29,-99.99,,,0.00,Acu-Link.com,2013-08-05 20:43:00,
2013-08-05 13:58:00,86.0,50.9,29.90,WNW,292,1.6,-999.0,30,-99.99,,,0.00,Acu-Link.com,2013-08-05 20:58:00,
2013-08-05 14:14:00,84.2,50.3,29.90,NE,45,2.0,-999.0,31,-99.99,,,0.00,Acu-Link.com,2013-08-05 21:14:00,
2013-08-05 14:44:00,86.0,45.0,29.90,NW,315,3.6,-999.0,24,-99.99,,,0.00,Acu-Link.com,2013-08-05 21:44:00,
2013-08-05 15:00:00,84.2,43.5,29.90,SW,225,1.1,-999.0,24,-99.99,,,0.00,Acu-Link.com,2013-08-05 22:00:00,
2013-08-05 15:30:00,86.0,41.5,29.89,West,270,2.7,-999.0,21,-99.99,,,0.00,Acu-Link.com,2013-08-05 22:30:00,
2013-08-05 15:46:00,86.0,40.2,29.89,North,0,4.0,-999.0,20,-99.99,,,0.00,Acu-Link.com,2013-08-05 22:46:00,
2013-08-05 16:01:00,86.0,38.9,29.88,North,0,1.1,-999.0,19,-99.99,,,0.00,Acu-Link.com,2013-08-05 23:01:00,
2013-08-05 16:16:00,86.0,41.5,29.88,WNW,292,3.6,-999.0,21,-99.99,,,0.00,Acu-Link.com,2013-08-05 23:16:00,
2013-08-05 16:31:00,87.8,40.4,29.87,SW,225,2.0,-999.0,19,-99.99,,,0.00,Acu-Link.com,2013-08-05 23:31:00,
2013-08-05 17:01:00,84.2,42.4,29.87,NW,315,3.6,-999.0,23,-99.99,,,0.00,Acu-Link.com,2013-08-06 00:01:00,
2013-08-05 17:17:00,86.0,41.5,29.86,NE,45,3.1,-999.0,21,-99.99,,,0.00,Acu-Link.com,2013-08-06 00:17:00,
2013-08-05 17:47:00,89.6,39.0,29.85,NNE,22,0.0,-999.0,17,-99.99,,,0.00,Acu-Link.com,2013-08-06 00:47:00,
2013-08-05 18:33:00,82.4,38.5,29.85,West,270,0.0,-999.0,21,-99.99,,,0.00,Acu-Link.com,2013-08-06 01:33:00,
2013-08-05 18:49:00,82.4,39.7,29.85,NW,315,1.1,-999.0,22,-99.99,,,0.00,Acu-Link.com,2013-08-06 01:49:00,
2013-08-05 19:04:00,80.6,40.5,29.85,NE,45,0.0,-999.0,24,-99.99,,,0.00,Acu-Link.com,2013-08-06 02:04:00,
2013-08-05 19:19:00,78.8,41.0,29.84,NE,45,0.0,-999.0,26,-99.99,,,0.00,Acu-Link.com,2013-08-06 02:19:00,
2013-08-05 19:34:00,78.8,42.0,29.84,NE,45,0.0,-999.0,27,-99.99,,,0.00,Acu-Link.com,2013-08-06 02:34:00,
2013-08-05 19:49:00,77.0,41.4,29.84,NNE,22,0.0,-999.0,28,-99.99,,,0.00,Acu-Link.com,2013-08-06 02:49:00,
2013-08-05 20:05:00,75.2,41.6,29.84,NNE,22,0.0,-999.0,30,-99.99,,,0.00,Acu-Link.com,2013-08-06 03:05:00,
2013-08-05 20:20:00,73.4,42.5,29.84,NE,45,0.0,-999.0,33,-99.99,,,0.00,Acu-Link.com,2013-08-06 03:20:00,
2013-08-05 20:35:00,71.6,42.5,29.85,NE,45,0.0,-999.0,35,-99.99,,,0.00,Acu-Link.com,2013-08-06 03:35:00,
2013-08-05 21:05:00,69.8,42.3,29.85,NE,45,0.0,-999.0,37,-99.99,,,0.00,Acu-Link.com,2013-08-06 04:05:00,
2013-08-05 21:21:00,68.0,43.4,29.85,NE,45,0.0,-999.0,41,-99.99,,,0.00,Acu-Link.com,2013-08-06 04:21:00,
2013-08-05 21:36:00,68.0,45.9,29.85,ENE,67,0.0,-999.0,45,-99.99,,,0.00,Acu-Link.com,2013-08-06 04:36:00,
2013-08-05 21:51:00,66.2,45.4,29.86,NE,45,0.0,-999.0,47,-99.99,,,0.00,Acu-Link.com,2013-08-06 04:51:00,
2013-08-05 22:06:00,64.4,44.3,29.86,NE,45,0.0,-999.0,48,-99.99,,,0.00,Acu-Link.com,2013-08-06 05:06:00,
2013-08-05 22:22:00,62.6,43.7,29.86,NE,45,0.0,-999.0,50,-99.99,,,0.00,Acu-Link.com,2013-08-06 05:22:00,
2013-08-05 22:37:00,62.6,45.7,29.86,NE,45,0.0,-999.0,54,-99.99,,,0.00,Acu-Link.com,2013-08-06 05:37:00,
2013-08-05 22:52:00,62.6,46.7,29.86,East,90,0.0,-999.0,56,-99.99,,,0.00,Acu-Link.com,2013-08-06 05:52:00,
2013-08-05 23:07:00,60.8,46.8,29.86,East,90,0.0,-999.0,60,-99.99,,,0.00,Acu-Link.com,2013-08-06 06:07:00,
2013-08-05 23:23:00,60.8,48.5,29.86,East,90,0.0,-999.0,64,-99.99,,,0.00,Acu-Link.com,2013-08-06 06:23:00,
2013-08-05 23:38:00,59.0,46.8,29.87,SSE,157,0.0,-999.0,64,-99.99,,,0.00,Acu-Link.com,2013-08-06 06:38:00,
2013-08-05 23:53:00,59.0,48.8,29.87,SE,135,0.0,-999.0,69,-99.99,,,0.00,Acu-Link.com,2013-08-06 06:53:00,